TimeCDT,TemperatureF,Dew PointF,Humidity,Sea Level PressureIn,VisibilityMPH,Wind Direction,Wind SpeedMPH,Gust SpeedMPH,PrecipitationIn,Events,Conditions,WindDirDegrees,DateUTC
12:58 AM,61.3,57.0,86,30.09,10.0,NE,8.1,-,N/A,,Clear,40,2013-09-29 05:58:00
1:58 AM,59.9,56.5,88,30.08,10.0,NE,8.1,-,N/A,,Clear,40,2013-09-29 06:58:00
2:58 AM,60.3,56.1,86,30.07,10.0,NE,8.1,-,N/A,,Clear,40,2013-09-29 07:58:00
3:58 AM,59.9,56.1,87,30.06,10.0,NE,8.1,-,N/A,,Clear,40,2013-09-29 08:58:00
4:58 AM,59.2,55.9,89,30.06,10.0,NE,8.1,-,N/A,,Clear,50,2013-09-29 09:58:00
5:58 AM,57.6,55.6,93,30.07,10.0,NE,8.1,-,N/A,,Clear,50,2013-09-29 10:58:00
6:58 AM,57.4,55.8,94,30.09,10.0,NE,6.9,-,N/A,,Clear,40,2013-09-29 11:58:00
7:58 AM,61.5,57.9,88,30.09,10.0,NE,6.9,-,N/A,,Clear,40,2013-09-29 12:58:00
8:58 AM,66.0,60.1,81,30.09,10.0,NE,4.6,-,N/A,,Clear,40,2013-09-29 13:58:00
9:58 AM,71.1,62.2,74,30.09,10.0,Variable,3.5,-,N/A,,Clear,0,2013-09-29 14:58:00
10:58 AM,75.7,62.4,63,30.08,10.0,Variable,3.5,-,N/A,,Clear,0,2013-09-29 15:58:00
11:58 AM,76.6,61.7,60,30.07,10.0,ENE,8.1,-,N/A,,Partly Cloudy,60,2013-09-29 16:58:00
12:58 PM,79.5,61.3,54,30.04,10.0,East,8.1,-,N/A,,Clear,80,2013-09-29 17:58:00
1:58 PM,79.2,59.9,52,30.01,10.0,Variable,3.5,-,N/A,,Clear,0,2013-09-29 18:58:00
2:58 PM,82.2,59.4,46,29.99,10.0,NE,6.9,-,N/A,,Partly Cloudy,40,2013-09-29 19:58:00
3:58 PM,79.0,60.3,53,29.99,10.0,NE,5.8,-,N/A,,Partly Cloudy,40,2013-09-29 20:58:00
4:58 PM,79.0,61.0,54,29.99,10.0,NNE,6.9,-,N/A,,Partly Cloudy,30,2013-09-29 21:58:00
5:58 PM,75.4,62.6,64,29.99,10.0,NNE,6.9,-,N/A,,Partly Cloudy,30,2013-09-29 22:58:00
6:58 PM,72.9,62.8,71,30.01,10.0,NNE,4.6,-,N/A,,Mostly Cloudy,20,2013-09-29 23:58:00
7:58 PM,70.9,62.8,75,30.01,10.0,NE,5.8,-,N/A,,Mostly Cloudy,40,2013-09-30 00:58:00
8:58 PM,70.3,62.8,77,30.02,10.0,NNE,5.8,-,N/A,,Overcast,30,2013-09-30 01:58:00
9:58 PM,67.6,62.8,84,30.02,10.0,ENE,5.8,-,N/A,,Scattered Clouds,60,2013-09-30 02:58:00
10:58 PM,65.5,62.2,89,30.01,10.0,NE,5.8,-,N/A,,Clear,50,2013-09-30 03:58:00
11:58 PM,64.8,62.4,92,30.00,10.0,NE,4.6,-,N/A,,Partly Cloudy,50,2013-09-30 04:58:00